When you browse on this site, cookies collect data to enhance your experience and personalize the content and advertising you see.
Visit our Privacy Policy to learn more. By continuing to use the site, you agree to this use of cookies and data.
  • In Switzerland
  • List of Countries
  • For 7 days
  • Water Temperature
  • Satellite Maps
  • Weather Map
  • Weather Widgets
  • user-avatar
    Login

    Hourly Weather Kalgoorlie

    Today, 12 December, Wednesday

    Time Temperature Precipitation Wind Pressure Humidity
    00:00 +26°C° 0 mm 6 mps 726 mmHg 59%
    01:00 +24°C° 0 mm 6 mps 726 mmHg 61%
    02:00 +23°C° 0 mm 6 mps 726 mmHg 63%
    03:00 +22°C° 0 mm 6 mps 727 mmHg 62%
    04:00 +21°C° 0 mm 6 mps 727 mmHg 62%
    05:00 +20°C° 0 mm 6 mps 727 mmHg 62%
    06:00 +21°C° 0 mm 6 mps 728 mmHg 57%
    07:00 +22°C° 0 mm 7 mps 728 mmHg 53%
    08:00 +23°C° 0 mm 7 mps 729 mmHg 49%
    09:00 +24°C° 0 mm 7 mps 729 mmHg 45%
    10:00 +26°C° 0 mm 6 mps 729 mmHg 41%
    11:00 +28°C° 0 mm 6 mps 729 mmHg 37%
    12:00 +29°C° 0 mm 6 mps 729 mmHg 34%
    13:00 +30°C° 0 mm 6 mps 729 mmHg 31%
    14:00 +32°C° 0 mm 5 mps 729 mmHg 28%
    15:00 +30°C° 0 mm 6 mps 729 mmHg 30%
    16:00 +30°C° 0 mm 6 mps 729 mmHg 31%
    17:00 +30°C° 0 mm 7 mps 729 mmHg 32%
    18:00 +28°C° 0 mm 7 mps 729 mmHg 36%
    19:00 +27°C° 0 mm 8 mps 730 mmHg 40%
    20:00 +24°C° 0 mm 9 mps 730 mmHg 45%
    21:00 +23°C° 0 mm 9 mps 731 mmHg 47%
    22:00 +22°C° 0 mm 9 mps 731 mmHg 50%
    23:00 +21°C° 0 mm 9 mps 732 mmHg 53%

    Tomorrow, 13 December, Thursday

    Time Temperature Precipitation Wind Pressure Humidity
    00:00 +19°C° 0 mm 9 mps 732 mmHg 57%
    01:00 +17°C° 0 mm 9 mps 732 mmHg 61%
    02:00 +16°C° 0 mm 8 mps 731 mmHg 65%
    03:00 +16°C° 0 mm 8 mps 732 mmHg 65%
    04:00 +15°C° 0 mm 7 mps 732 mmHg 64%
    05:00 +15°C° 0 mm 7 mps 732 mmHg 64%
    06:00 +16°C° 0 mm 7 mps 732 mmHg 58%
    07:00 +17°C° 0 mm 7 mps 732 mmHg 52%
    08:00 +18°C° 0 mm 7 mps 732 mmHg 47%
    09:00 +21°C° 0 mm 7 mps 732 mmHg 39%
    10:00 +23°C° 0 mm 7 mps 732 mmHg 31%
    11:00 +26°C° 0 mm 7 mps 732 mmHg 24%
    12:00 +28°C° 0 mm 7 mps 731 mmHg 21%
    13:00 +29°C° 0 mm 7 mps 731 mmHg 18%
    14:00 +30°C° 0 mm 7 mps 731 mmHg 16%
    15:00 +30°C° 0 mm 7 mps 730 mmHg 16%
    16:00 +30°C° 0 mm 7 mps 730 mmHg 16%
    17:00 +30°C° 0 mm 7 mps 730 mmHg 16%
    18:00 +29°C° 0 mm 6 mps 730 mmHg 18%
    19:00 +28°C° 0 mm 6 mps 730 mmHg 20%
    20:00 +27°C° 0 mm 6 mps 731 mmHg 22%
    21:00 +26°C° 0 mm 6 mps 731 mmHg 24%
    22:00 +24°C° 0 mm 6 mps 731 mmHg 27%
    23:00 +24°C° 0 mm 7 mps 731 mmHg 29%

    Day after tomorrow, 14 December, Friday

    Time Temperature Precipitation Wind Pressure Humidity
    00:00 +23°C° 0 mm 7 mps 731 mmHg 33%
    01:00 +21°C° 0 mm 7 mps 730 mmHg 38%
    02:00 +20°C° 0 mm 7 mps 730 mmHg 42%
    03:00 +20°C° 0 mm 7 mps 730 mmHg 46%
    04:00 +18°C° 0 mm 7 mps 730 mmHg 50%
    05:00 +17°C° 0 mm 7 mps 729 mmHg 53%
    06:00 +18°C° 0 mm 7 mps 730 mmHg 50%
    07:00 +21°C° 0 mm 7 mps 730 mmHg 46%
    08:00 +22°C° 0 mm 7 mps 730 mmHg 43%
    09:00 +24°C° 0 mm 7 mps 730 mmHg 36%
    10:00 +27°C° 0 mm 7 mps 729 mmHg 29%
    11:00 +29°C° 0 mm 7 mps 729 mmHg 23%
    12:00 +30°C° 0 mm 6 mps 728 mmHg 20%
    13:00 +33°C° 0 mm 6 mps 728 mmHg 17%
    14:00 +34°C° 0 mm 6 mps 727 mmHg 15%
    15:00 +34°C° 0 mm 6 mps 727 mmHg 14%
    16:00 +34°C° 0 mm 5 mps 726 mmHg 14%
    17:00 +34°C° 0 mm 5 mps 726 mmHg 13%
    18:00 +33°C° 0 mm 5 mps 726 mmHg 15%
    19:00 +32°C° 0 mm 6 mps 727 mmHg 16%
    20:00 +30°C° 0 mm 6 mps 727 mmHg 17%
    21:00 +29°C° 0 mm 7 mps 727 mmHg 19%
    22:00 +28°C° 0 mm 7 mps 727 mmHg 20%
    23:00 +27°C° 0 mm 8 mps 727 mmHg 22%

    15 December, Saturday

    Time Temperature Precipitation Wind Pressure Humidity
    00:00 +26°C° 0 mm 8 mps 726 mmHg 24%
    01:00 +24°C° 0 mm 8 mps 726 mmHg 26%
    02:00 +24°C° 0 mm 8 mps 725 mmHg 28%
    03:00 +23°C° 0 mm 8 mps 725 mmHg 31%
    04:00 +22°C° 0 mm 8 mps 725 mmHg 34%
    05:00 +21°C° 0 mm 8 mps 725 mmHg 38%
    06:00 +22°C° 0 mm 8 mps 725 mmHg 35%
    07:00 +24°C° 0 mm 8 mps 725 mmHg 33%
    08:00 +26°C° 0 mm 8 mps 726 mmHg 31%
    09:00 +28°C° 0 mm 8 mps 725 mmHg 27%
    10:00 +31°C° 0 mm 8 mps 725 mmHg 22%
    11:00 +33°C° 0 mm 8 mps 724 mmHg 18%
    12:00 +34°C° 0 mm 8 mps 723 mmHg 16%
    13:00 +37°C° 0 mm 8 mps 722 mmHg 15%
    14:00 +38°C° 0 mm 8 mps 721 mmHg 13%
    15:00 +39°C° 0 mm 8 mps 721 mmHg 13%
    16:00 +39°C° 0 mm 8 mps 720 mmHg 12%
    17:00 +39°C° 0 mm 8 mps 719 mmHg 12%
    18:00 +38°C° 0 mm 9 mps 719 mmHg 13%
    19:00 +37°C° 0 mm 10 mps 719 mmHg 14%
    20:00 +34°C° 0 mm 11 mps 719 mmHg 15%
    21:00 +34°C° 0 mm 10 mps 719 mmHg 16%
    22:00 +33°C° 0 mm 10 mps 719 mmHg 16%
    23:00 +32°C° 0 mm 9 mps 719 mmHg 16%

    16 December, Sunday

    Time Temperature Precipitation Wind Pressure Humidity
    00:00 +31°C° 0 mm 8 mps 719 mmHg 18%
    01:00 +29°C° 0 mm 7 mps 719 mmHg 19%
    02:00 +28°C° 0 mm 6 mps 719 mmHg 21%
    03:00 +27°C° 0 mm 5 mps 719 mmHg 24%
    04:00 +27°C° 0 mm 5 mps 719 mmHg 28%
    05:00 +26°C° 0 mm 4 mps 720 mmHg 32%
    06:00 +26°C° 0 mm 5 mps 720 mmHg 37%
    07:00 +26°C° 0 mm 6 mps 720 mmHg 42%
    08:00 +26°C° 0 mm 7 mps 721 mmHg 47%
    09:00 +28°C° 0 mm 7 mps 720 mmHg 43%
    10:00 +29°C° 0 mm 7 mps 720 mmHg 39%
    11:00 +30°C° 0 mm 7 mps 720 mmHg 35%
    12:00 +32°C° 0 mm 7 mps 720 mmHg 30%
    13:00 +33°C° 0 mm 7 mps 719 mmHg 26%
    14:00 +34°C° 0 mm 7 mps 719 mmHg 21%
    15:00 +34°C° 0 mm 7 mps 719 mmHg 19%
    16:00 +34°C° 0 mm 7 mps 719 mmHg 18%
    17:00 +34°C° 0 mm 7 mps 719 mmHg 16%
    18:00 +33°C° 0 mm 7 mps 720 mmHg 18%
    19:00 +30°C° 0 mm 7 mps 720 mmHg 19%
    20:00 +29°C° 0 mm 8 mps 721 mmHg 21%
    21:00 +28°C° 0 mm 8 mps 721 mmHg 24%
    22:00 +26°C° 0 mm 8 mps 721 mmHg 27%
    23:00 +23°C° 0 mm 8 mps 721 mmHg 31%

    17 December, Monday

    Time Temperature Precipitation Wind Pressure Humidity
    00:00 +22°C° 0 mm 8 mps 721 mmHg 34%
    01:00 +21°C° 0 mm 8 mps 721 mmHg 37%
    02:00 +20°C° 0 mm 8 mps 721 mmHg 40%
    03:00 +18°C° 0 mm 7 mps 721 mmHg 43%
    04:00 +17°C° 0 mm 6 mps 722 mmHg 45%
    05:00 +17°C° 0 mm 6 mps 722 mmHg 47%
    06:00 +19°C° 0 mm 5 mps 722 mmHg 46%
    07:00 +19°C° 0 mm 5 mps 723 mmHg 45%
    08:00 +20°C° 0 mm 5 mps 723 mmHg 43%
    09:00 +22°C° 0 mm 5 mps 723 mmHg 40%
    10:00 +23°C° 0 mm 6 mps 723 mmHg 38%
    11:00 +26°C° 0 mm 6 mps 722 mmHg 35%
    12:00 +26°C° 0.2 mm 6 mps 722 mmHg 37%
    13:00 +26°C° 0.2 mm 7 mps 722 mmHg 38%
    14:00 +26°C° 0.2 mm 8 mps 722 mmHg 40%
    15:00 +26°C° 0 mm 8 mps 722 mmHg 39%
    16:00 +26°C° 0 mm 7 mps 722 mmHg 38%
    17:00 +26°C° 0 mm 7 mps 722 mmHg 38%
    18:00 +24°C° 0 mm 6 mps 723 mmHg 38%
    19:00 +25°C° 0 mm 5 mps 723 mmHg 38%
    20:00 +25°C° 0 mm 3 mps 724 mmHg 38%
    21:00 +24°C° 0 mm 3 mps 724 mmHg 39%
    22:00 +24°C° 0 mm 3 mps 724 mmHg 40%
    23:00 +23°C° 0 mm 2 mps 724 mmHg 41%
    Show more